• In Romania
  • List of Countries
  • For 7 days
  • Water Temperature
  • Satellite Maps
  • Weather Map
  • Weather Widgets
  • user-avatar
    Login

    Hourly Weather Emona

    Today, 16 December, Saturday

    Time Temperature Precipitation Wind Pressure Humidity
    00:00 +11°C° 0 mm 8 mps 756 mmHg 84%
    01:00 +11°C° 0 mm 8 mps 756 mmHg 85%
    02:00 +11°C° 0 mm 8 mps 756 mmHg 87%
    03:00 +11°C° 0 mm 8 mps 755 mmHg 86%
    04:00 +12°C° 0 mm 8 mps 755 mmHg 86%
    05:00 +12°C° 0 mm 9 mps 755 mmHg 85%
    06:00 +12°C° 0 mm 9 mps 755 mmHg 84%
    07:00 +12°C° 0 mm 9 mps 755 mmHg 82%
    08:00 +12°C° 0 mm 9 mps 754 mmHg 81%
    09:00 +13°C° 0 mm 9 mps 755 mmHg 75%
    10:00 +14°C° 0 mm 10 mps 755 mmHg 70%
    11:00 +16°C° 0 mm 10 mps 755 mmHg 64%
    12:00 +17°C° 0 mm 10 mps 755 mmHg 61%
    13:00 +17°C° 0 mm 10 mps 755 mmHg 58%
    14:00 +18°C° 0 mm 10 mps 755 mmHg 55%
    15:00 +17°C° 0 mm 9 mps 755 mmHg 60%
    16:00 +16°C° 0 mm 9 mps 755 mmHg 64%
    17:00 +16°C° 0 mm 9 mps 755 mmHg 69%
    18:00 +15°C° 0 mm 9 mps 756 mmHg 72%
    19:00 +15°C° 0 mm 9 mps 756 mmHg 76%
    20:00 +15°C° 0 mm 9 mps 756 mmHg 79%
    21:00 +14°C° 0.4 mm 7 mps 756 mmHg 80%
    22:00 +14°C° 0.4 mm 6 mps 756 mmHg 82%
    23:00 +14°C° 0.4 mm 5 mps 756 mmHg 84%

    Tomorrow, 17 December, Sunday

    Time Temperature Precipitation Wind Pressure Humidity
    00:00 +14°C° 1.1 mm 6 mps 756 mmHg 84%
    01:00 +14°C° 1.1 mm 6 mps 755 mmHg 85%
    02:00 +14°C° 1.1 mm 7 mps 755 mmHg 85%
    03:00 +12°C° 1.4 mm 7 mps 755 mmHg 86%
    04:00 +12°C° 1.4 mm 7 mps 755 mmHg 86%
    05:00 +11°C° 1.4 mm 8 mps 755 mmHg 86%
    06:00 +11°C° 0.9 mm 7 mps 755 mmHg 86%
    07:00 +10°C° 0.9 mm 6 mps 755 mmHg 86%
    08:00 +10°C° 0.9 mm 5 mps 756 mmHg 85%
    09:00 +9°C° 2.5 mm 5 mps 756 mmHg 86%
    10:00 +9°C° 2.5 mm 5 mps 757 mmHg 87%
    11:00 +9°C° 2.5 mm 5 mps 757 mmHg 87%
    12:00 +8°C° 2.2 mm 5 mps 757 mmHg 86%
    13:00 +8°C° 2.2 mm 5 mps 757 mmHg 85%
    14:00 +7°C° 2.2 mm 5 mps 757 mmHg 85%
    15:00 +7°C° 0.9 mm 5 mps 757 mmHg 84%
    16:00 +7°C° 0.9 mm 5 mps 757 mmHg 84%
    17:00 +6°C° 0.9 mm 5 mps 757 mmHg 84%
    18:00 +6°C° 0.2 mm 5 mps 758 mmHg 84%
    19:00 +6°C° 0.2 mm 5 mps 759 mmHg 84%
    20:00 +6°C° 0.2 mm 5 mps 760 mmHg 84%
    21:00 +5°C° 0 mm 4 mps 760 mmHg 84%
    22:00 +5°C° 0 mm 4 mps 761 mmHg 85%
    23:00 +5°C° 0 mm 4 mps 762 mmHg 85%

    Day after tomorrow, 18 December, Monday

    Time Temperature Precipitation Wind Pressure Humidity
    00:00 +4°C° 0 mm 4 mps 762 mmHg 86%
    01:00 +4°C° 0 mm 4 mps 763 mmHg 86%
    02:00 +3°C° 0 mm 4 mps 763 mmHg 86%
    03:00 +3°C° 0 mm 4 mps 763 mmHg 86%
    04:00 +3°C° 0 mm 3 mps 763 mmHg 86%
    05:00 +3°C° 0 mm 3 mps 763 mmHg 86%
    06:00 +2°C° 0 mm 3 mps 764 mmHg 86%
    07:00 +2°C° 0 mm 3 mps 764 mmHg 85%
    08:00 +2°C° 0 mm 3 mps 765 mmHg 85%
    09:00 +3°C° 0 mm 3 mps 765 mmHg 79%
    10:00 +4°C° 0 mm 3 mps 765 mmHg 74%
    11:00 +5°C° 0 mm 3 mps 765 mmHg 68%
    12:00 +5°C° 0 mm 3 mps 765 mmHg 66%
    13:00 +5°C° 0 mm 3 mps 765 mmHg 64%
    14:00 +7°C° 0 mm 3 mps 764 mmHg 62%
    15:00 +5°C° 0 mm 3 mps 764 mmHg 65%
    16:00 +5°C° 0 mm 3 mps 764 mmHg 69%
    17:00 +4°C° 0 mm 3 mps 764 mmHg 72%
    18:00 +4°C° 0.3 mm 3 mps 764 mmHg 73%
    19:00 +4°C° 0.3 mm 4 mps 764 mmHg 75%
    20:00 +3°C° 0.3 mm 4 mps 765 mmHg 77%
    21:00 +3°C° 0.4 mm 4 mps 765 mmHg 79%
    22:00 +3°C° 0.4 mm 4 mps 765 mmHg 81%
    23:00 +1°C° 0.4 mm 5 mps 766 mmHg 83%

    19 December, Tuesday

    Time Temperature Precipitation Wind Pressure Humidity
    00:00 +1°C° 0.2 mm 5 mps 766 mmHg 83%
    01:00 +1°C° 0.2 mm 5 mps 766 mmHg 84%
    02:00 0°C° 0.2 mm 5 mps 766 mmHg 85%
    03:00 0°C° 0.1 mm 5 mps 767 mmHg 84%
    04:00 0°C° 0.1 mm 5 mps 767 mmHg 84%
    05:00 0°C° 0.1 mm 5 mps 767 mmHg 83%
    06:00 0°C° 0.1 mm 5 mps 768 mmHg 83%
    07:00 0°C° 0.1 mm 5 mps 768 mmHg 83%
    08:00 -1°C° 0.1 mm 5 mps 769 mmHg 83%
    09:00 0°C° 0.1 mm 5 mps 769 mmHg 81%
    10:00 0°C° 0.1 mm 5 mps 770 mmHg 79%
    11:00 +1°C° 0.1 mm 5 mps 770 mmHg 77%
    12:00 +1°C° 0.1 mm 5 mps 770 mmHg 76%
    13:00 +1°C° 0.1 mm 5 mps 770 mmHg 75%
    14:00 +2°C° 0.1 mm 5 mps 770 mmHg 73%
    15:00 +1°C° 0.1 mm 5 mps 770 mmHg 76%
    16:00 +1°C° 0.1 mm 5 mps 771 mmHg 79%
    17:00 0°C° 0.1 mm 5 mps 771 mmHg 82%
    18:00 0°C° 0 mm 5 mps 771 mmHg 84%
    19:00 -1°C° 0 mm 5 mps 771 mmHg 85%
    20:00 -1°C° 0 mm 5 mps 772 mmHg 87%
    21:00 -2°C° 0 mm 5 mps 772 mmHg 87%
    22:00 -2°C° 0 mm 5 mps 772 mmHg 86%
    23:00 -3°C° 0 mm 6 mps 772 mmHg 86%

    20 December, Wednesday

    Time Temperature Precipitation Wind Pressure Humidity
    00:00 -3°C° 0 mm 6 mps 772 mmHg 85%
    01:00 -3°C° 0 mm 6 mps 772 mmHg 84%
    02:00 -3°C° 0 mm 6 mps 772 mmHg 83%
    03:00 -4°C° 0 mm 6 mps 772 mmHg 83%
    04:00 -4°C° 0 mm 6 mps 772 mmHg 83%
    05:00 -4°C° 0 mm 6 mps 772 mmHg 82%
    06:00 -4°C° 0 mm 5 mps 773 mmHg 83%
    07:00 -4°C° 0 mm 5 mps 773 mmHg 83%
    08:00 -4°C° 0 mm 5 mps 773 mmHg 84%
    09:00 -2°C° 0 mm 5 mps 773 mmHg 79%
    10:00 -1°C° 0 mm 5 mps 773 mmHg 74%
    11:00 0°C° 0 mm 5 mps 773 mmHg 69%
    12:00 0°C° 0 mm 4 mps 773 mmHg 68%
    13:00 +1°C° 0 mm 4 mps 773 mmHg 67%
    14:00 +1°C° 0 mm 4 mps 772 mmHg 65%
    15:00 0°C° 0 mm 4 mps 773 mmHg 69%
    16:00 +1°C° 0 mm 3 mps 773 mmHg 73%
    17:00 0°C° 0 mm 3 mps 773 mmHg 76%
    18:00 0°C° 0 mm 3 mps 773 mmHg 78%
    19:00 0°C° 0 mm 3 mps 773 mmHg 80%
    20:00 -1°C° 0 mm 3 mps 773 mmHg 81%
    21:00 -1°C° 0 mm 3 mps 773 mmHg 82%
    22:00 -1°C° 0 mm 3 mps 773 mmHg 82%
    23:00 -1°C° 0 mm 3 mps 773 mmHg 83%

    21 December, Thursday

    Time Temperature Precipitation Wind Pressure Humidity
    00:00 -1°C° 0 mm 3 mps 773 mmHg 83%
    01:00 -2°C° 0 mm 3 mps 773 mmHg 83%
    02:00 -2°C° 0 mm 3 mps 773 mmHg 83%
    03:00 -2°C° 0 mm 3 mps 773 mmHg 83%
    04:00 -2°C° 0 mm 3 mps 773 mmHg 83%
    05:00 -2°C° 0 mm 3 mps 773 mmHg 83%
    06:00 -2°C° 0 mm 3 mps 773 mmHg 83%
    07:00 -2°C° 0 mm 3 mps 773 mmHg 83%
    08:00 -2°C° 0 mm 3 mps 773 mmHg 83%
    09:00 -1°C° 0 mm 3 mps 773 mmHg 78%
    10:00 0°C° 0 mm 3 mps 773 mmHg 73%
    11:00 +1°C° 0 mm 3 mps 773 mmHg 67%
    12:00 +1°C° 0 mm 3 mps 773 mmHg 65%
    13:00 +1°C° 0 mm 3 mps 772 mmHg 63%
    14:00 0°C° 0 mm 4 mps 772 mmHg 61%
    15:00 +1°C° 0 mm 3 mps 772 mmHg 66%
    16:00 0°C° 0 mm 3 mps 772 mmHg 70%
    17:00 -1°C° 0 mm 3 mps 772 mmHg 75%
    18:00 -1°C° 0 mm 2 mps 772 mmHg 76%
    19:00 -2°C° 0 mm 2 mps 772 mmHg 77%
    20:00 -2°C° 0 mm 2 mps 772 mmHg 78%
    21:00 -2°C° 0 mm 2 mps 772 mmHg 77%
    22:00 -2°C° 0 mm 2 mps 771 mmHg 76%
    23:00 -2°C° 0 mm 2 mps 771 mmHg 75%
    Show more